Location: Observatory
(52.1446°N, 0.4624°W)
Time: 23:46:40
(UTC+01:00)

ISS - Pass Details

Date: 25 May 2019
Orbit: 408 x 418 km, 51.6° (Epoch: 18 June)

Event Time Altitude Azimuth Distance (km) Brightness Sun altitude
Rises 00:46:00 0° 282° (WNW) 2,364 0.3 -16.9°
Reaches altitude 10° 00:48:12 10° 273° (W) 1,500 -0.9 -17.0°
Enters shadow 00:50:34 31° 236° (SW) 769 -2.7 -17.0°
